Location: ?????????
(53.2086°N, 54.0693°E)
Time: 01:49:17
(UTC+00:00)

Sich 1 Rocket - Pass Details

Date: 08 December 2019
Orbit: 616 x 652 km, 82.5° (Epoch: 25 January)

Event Time Altitude Azimuth Distance (km) Brightness Sun altitude
Rises 14:16:25 0° 353° (N) 2,925 7.0 -18.1°
Reaches altitude 10° 14:18:46 10° 360° (N) 2,009 6.0 -18.5°
Enters shadow 14:22:35 41° 56° (NE) 906 3.9 -19.0°
